{"data":{"norad_id":56688,"epoch":"2026-09-20T10:49:18.374304Z","epoch_age_seconds":119188,"freshness":"FRESH","line1":"1 56688U 23067A   26263.45090711  .00000488  00000+0  27259-4 0  9995","line2":"2 56688  43.0047 258.1604 0001466 271.5676  88.5008 15.27577660185470","mean_motion":15.2757766,"eccentricity":0.0001466,"inclination_deg":43.0047,"raan_deg":258.1604,"arg_perigee_deg":271.5676,"mean_anomaly_deg":88.5008,"bstar":2.7259e-5,"rev_number":18547,"period_min":94.266893114946,"perigee_km":482.05025194153,"apogee_km":484.06195375929,"semimajor_km":6861.1931028504,"source":"CELESTRAK","updated_at":"2026-09-21T09:00:33.480704Z"}}